Location: Wiler
(46.4041°N, 7.7840°E)
Time: 19:55:04
(UTC+00:00)

Cosmos 1703 - Pass Details

Date: 09 April 2020
Orbit: 523 x 541 km, 82.5° (Epoch: 03 June)

Event Time Altitude Azimuth Distance (km) Brightness Sun altitude
Rises 18:58:59 0° 350° (N) 2,707 7.3 -9.1°
Reaches altitude 10° 19:01:09 10° 350° (N) 1,812 6.4 -9.4°
Maximum altitude 19:05:08 85° 263° (W) 550 3.3 -10.0°
Drops below altitude 10° 19:09:06 10° 174° (S) 1,800 5.7 -10.7°
Sets 19:11:15 0° 174° (S) 2,687 6.5 -11.0°
